Regional Weather Roundup
Issued by NWS Wakefield, VA

Home | Current Version | Previous Version | Graphics & Text | Print | Product List | Glossary On
Versions: 1 2 3 4 5 6 7 8 9 10 11 12 13 14 15 16 17 18 19 20 21 22 23 24 25 26 27
000
ASUS41 KAKQ 291615
RWRAKQ

REGIONAL WEATHER ROUNDUP
NATIONAL WEATHER SERVICE WAKEFIELD VA
1200 PM EDT FRI JUL 29 2016

Note: "fair" indicates few or no clouds below 12,000 feet with no
significant weather and/or obstructions to visibility. * = Denotes
station may not report precipitation (e.g., rain,snow,etc.),
thunder or fog.

VAZ042-051-052>054-056-291700-
NORTHERN VIRGINIA

CITY           SKY/WX    TMP DP  RH WIND       PRES   REMARKS
WASH NATIONAL  FAIR      84  70  62 N7        29.88F
DULLES         PTSUNNY   83  68  60 N7        29.90S
FORT BELVOIR   PTSUNNY   82  68  62 VRB5      29.88F
QUANTICO       PTSUNNY   84  70  62 NE8       29.89F
FREDERICKSBRG* FAIR      82  71  70 N8        29.89S
STAFFORD*      PTSUNNY   81  69  66 N9        29.93F
WARRENTON      PTSUNNY   84  66  55 NW7       29.90S
CULPEPER*      PTSUNNY   82  71  70 N3        29.92S
MANASSAS*      PTSUNNY   82  70  65 N6        29.90S
LEESBURG*      PTSUNNY   82  72  69 CALM      29.92R
WINCHESTER     PTSUNNY   81  68  65 NW7       29.93S
FRONT ROYAL*   PTSUNNY   79  70  73 N3        29.92F
LURAY*         NOT AVBL
$$

VAZ048-049-060>072-079>083-291700-
CENTRAL AND SOUTH CENTRAL VIRGINIA

CITY           SKY/WX    TMP DP  RH WIND       PRES   REMARKS
RICHMOND       PTSUNNY   80  71  74 N13       29.90S
CHESTERFIELD*  CLOUDY    82  63  51 NW8       29.92R
PETERSBURG*    CLOUDY    83  72  69 N6        29.91S
HANOVER        CLOUDY    80  70  71 NW3       29.92S
TAPPAHANNOCK*  CLOUDY    81  73  74 N8        29.89F
QUINTON*       CLOUDY    79  73  83 N3        29.89R
CHARLOTTSVILLE PTSUNNY   85  68  56 N6        29.92F
GORDONSVILLE*  FAIR      82  71  71 N5        29.92S
ORANGE*          N/A     81  70  69 NW5       29.94R
LOUISA*        FAIR      84  73  70 N9        29.91S
BUMPASS*       PTSUNNY   80  73  76 N5        29.91S
FARMVILLE*     CLOUDY    80  73  77 N5        29.92S
CREWE*         NOT AVBL
FORT PICKETT*  CLOUDY    79  74  86 N9        29.93S
CHASE CITY*    PTSUNNY   82  70  65 N6        29.92S
CLARKSVILLE*   PTSUNNY   84  70  61 N7        29.92S
SOUTH HILL*    FAIR      83  73  72 N7        29.97S
LAWRENCEVILLE* CLOUDY    82  72  73 N7G16     29.91S
EMPORIA*       PTSUNNY   81  72  74 NW10      29.91S
$$

VAZ088>098-291700-
SOUTHEAST VIRGINIA

CITY           SKY/WX    TMP DP  RH WIND       PRES   REMARKS
NORFOLK        PTSUNNY   86  73  65 VRB3      29.86F
VIRGINIA BEACH PTSUNNY   90  74  59 N8        29.86S HX  99
NORFOLK NAVAL  FAIR      86  73  65 W9        29.88S
WEST POINT*    CLOUDY    81  72  75 NW5       29.89S
SALUDA*        CLOUDY    81  75  80 NW7       29.87S
NEWPORT NEWS   PTSUNNY   86  74  67 NW8       29.87S
LANGLEY AFB    PTSUNNY   83  74  73 W8        29.86S
FORT EUSTIS    FAIR      87  76  68 W7        29.85F HX  97
WILLIAMSBURG*  FAIR      90  75  62 N7        29.88S HX 100
HR EXEC AP*    PTSUNNY   88  75  66 NW5       29.89F HX  97
FRANKLIN*      CLOUDY    82  72  72 W6        29.89S
US460-WAKEFLD  PTSUNNY   84  72  67 NW5       29.88F
$$

VAZ020-022-025-037-045-291700-
WEST CENTRAL AND SOUTHWEST VIRGINIA

CITY           SKY/WX    TMP DP  RH WIND       PRES   REMARKS
STAUNTON*      PTSUNNY   78  68  72 NE7       29.98S
WAYNESBORO*    PTSUNNY   79  68  68 N7        29.98S
HOT SPRINGS VA RAIN      66  66 100 NW7       30.09R
LYNCHBURG      PTSUNNY   83  69  62 CALM      29.97R
DANVILLE       FAIR      85  69  58 NW13      29.94F
SOUTH BOSTON*  FAIR     N/A N/A N/A N6        29.93S
MARTINSVILLE   PTSUNNY   82  67  60 W3        30.00S
ROANOKE        PTSUNNY   82  66  58 W7        29.99S
BLACKSBURG     CLOUDY    77  67  72 NW5       30.06S
DUBLIN*        PTSUNNY   79  66  64 N6        30.05S
MARION*        PTSUNNY   78  67  68 W8G20     30.09S
HILLSVILLE*    CLOUDY    75  66  72 NW12      30.05S
RICHLANDS*     CLOUDY    72  69  90 W5        30.09R
WISE*          FAIR     N/A N/A N/A SW5       30.09F
ABINGDON*      CLOUDY    76  69  79 NW3       30.07S
$$

MDZ021>025-VAZ099-100-291700-
SOUTHERN MARYLAND AND THE DELMARVA PENINSULA

CITY           SKY/WX    TMP DP  RH WIND       PRES   REMARKS
PATUXENT RIVER MOSUNNY   83  71  67 N12       29.87S
BAY BRIDGE APT MOSUNNY   81  72  74 N8        29.87S
LEONARDTOWN    PTSUNNY   79  70  73 N7        29.89
DOVER          PTSUNNY   81  78  90 NW12      29.84R
GEORGETOWN     CLOUDY    81  72  74 N10       29.86R
EASTON         PTSUNNY   81  73  78 N7        29.90S
CAMBRIDGE      PTSUNNY   79  70  73 N9        29.86S
SALISBURY      CLOUDY    79  73  83 MISG      29.85R
OCEAN CITY       N/A    N/A N/A N/A MISG      29.84R
WALLOPS ISLAND FAIR      85  75  72 NW10      29.84S
ACCOMACK*      PTSUNNY   84  73  70 NW7G17    29.85S
$$

NCZ012>017-030>032-291700-
NORTH CENTRAL AND EASTERN NORTH CAROLINA

CITY           SKY/WX    TMP DP  RH WIND       PRES   REMARKS
ROANOKE RAPIDS PTSUNNY   86  72  62 NW7       29.90S
RALEIGH        MOSUNNY   88  69  53 NW8       29.92F
ELIZABETH CITY MOSUNNY   90  74  59 W10       29.87S HX  99
AHOSKIE*       CLOUDY    82  74  77 NW5       29.89S
EDENTON*       PTSUNNY   90  71  53 W7        29.88S HX  97
CURRITUCK*     MOSUNNY   88  74  63 W9        29.88R HX  96
KILL DEVIL HLS SUNNY     92  73  54 W8        29.87S HX 101
MANTEO           N/A     88  76  66 NW6       29.88S HX  98
CAPE HATTERAS  SUNNY     85  78  80 SW10      29.90S HX  96
TARBORO*       FAIR      89  73  59 W5        29.90S HX  97
GOLDSBORO      MOSUNNY   90  73  57 W13       29.89S HX  98
WASHINGTON     MOSUNNY   88  74  64 W3        29.89S HX  96
GREENVILLE     PTSUNNY   90  73  58 N5        29.91S HX  98
NEW BERN       SUNNY     90  73  57 W10G17    29.90F HX  98
WILMINGTON     SUNNY     92  71  50 W17G24    29.91F HX  98
$$

VAZ048-291700-
ELSEWHERE

CITY           SKY/WX    TMP DP  RH WIND       PRES   REMARKS
HARRISBURG PA  PTSUNNY   83  71  67 N8        29.87S
BALTIMORE      MOSUNNY   84  67  56 N5        29.87S
ANNAPOLIS      MOSUNNY   83  70  64 N9        29.87S
ANDREWS AFB    FAIR      82  69  65 N6        29.88F
PHILADELPHIA   MOSUNNY   82  68  62 N16       29.85S
GREENSBORO     MOSUNNY   84  66  54 NW9       29.96S
ROCKY MOUNT    MOSUNNY   88  73  61 W3        29.90S HX  95
$$

VAZ100-291700-
MARINE

STATION/POSITION TIME  TEMP    WIND        PRES    WAVE   SWELL
                       AIR SEA DIR/SP/G            HT/PER HT/PER
                 (UTC) (F)     (DEG/KT/KT) (MB)    (FT/S) (FT/S)
BRANDYWINE LGT   1500   76     360/ 14/ 18   N/A
CAPE MAY NJ      1500   79 74   10/  5/ 12 1009.5R
LEWES DE         1500   76 73  350/ 11/ 14 1010.2R
OCEAN-CITY-INLET 1500   79 75  350/  9/ 11 1010.5R
WACHAPREAGUE VA  1500   83 85  310/  4/  9 1010.5R
THOMAS POINT MD  1600   79 83   10/  8/ 10 1012.8F
GOOSES REEF MD   1600   79 85  360/ 10/ 14 1012.6S   2/ 3
COVE POINT MD    1500   78      20/  9/ 17 1012.1R
SOLOMONS ISLAND  1500   78 85  330/  8/ 12   N/A
BISHOPS HEAD MD  1500   79     340/  8/ 12 1011.3R
PINEY POINT MD   1500          350/  9/ 12   N/A
POTOMAC MD       1600   80 85  350/ 12/ 16 1010.5R   1/ 2
CAMBRIDGE MD     1500   78 87  360/ 10/ 12 1010.4R
LEWISETTA VA     1500   78 85  350/  8/ 12 1011.3R
RAPPAHANNOCK LGT 1500          330/ 13/ 15 1011.4R
STINGRAY PT      1600   82 86  310/  8/ 12 1011.6R   1/ 2
YORK RVR RNG VA  1500   81     320/ 10/ 11 1010.9R
YORKTOWN VA      1500   80 85  300/ 10/ 12 1010.9R
JAMESTOWN VA     1600   82 89  300/  8/ 10   N/A
DOMINION TERM VA 1500   81     330/ 11/ 14 1011.7R
KIPTOPEKE VA     1500      80  310/ 10/ 12   N/A
CHES BAY BRIDGE  1500   81 82  290/ 10/ 11 1011.4R
CAPE HENRY VA    1500   80     310/ 13/ 14   N/A
WILLOUBY STN VA  1500   81     300/  8/ 10   N/A
CAPE HENRY BUOY  1512      75                N/A     2/ 3
1ST LANDING BUOY 1600   82 81  340/ 10/ 12 1011.0S   1/ 3
CAPE CHARLES BUO 1526      76                N/A     2/ 4
OFFSHORE WE BUOY 1521      81                N/A     2/ 3
64NM E OF VA BCH 1550   83 83  280/ 12/ 14 1011.3R   3/ 6   2/11
DUCK PIER NC     1500   85 67  250/ 12/ 14 1010.9R
44100 DUCK FRF   1505      80                N/A     2/ 3
44056 DUCK FRF   1511      74                N/A     1/14
OREGON INLET NC  1500   87 84  230/ 11/ 13 1011.7R
HATTERAS NC      1500   85 83  210/  8/ 13 1012.2R
DIAMOND SHLS NC  1550   85 85  230/ 16/ 19 1012.6F   3/ 6   2/14
CAPE LOOKOUT NC  1500   87     230/ 12/ 17 1012.8R
$$




USA.gov is the U.S. government's official web portal to all federal, state and local government web resources and services.